KLM166 KAUS-EHAM

Flight info

Callsign KLM166
Flight time N/A
Altitude 37000
Route BRV309008 RBV RIFLE ACK/N0470F390 BRADD N175G PORTI/M084F390 47N050W 49N040W 51N030W 53N020W MALOT/N0483F390 GISTI/N0487F410 KORAK LIFFY DOLAS L603 LAMSO EHAM
Aircraft B772/H-VGDW/C

Departure

Time N/A
Airport Austin Bergstrom International Airport (KAUS)

Arrival

Time 2026-05-06 07:42
Airport Amsterdam Airport Schiphol (EHAM)
Time Latitude Longitude Altitude Speed Heading
2026-05-06 03:36 47.72115 -46.94304 39242 ft 516 kts 68°
2026-05-06 03:37 47.74337 -46.84156 39243 ft 516 kts 68°
2026-05-06 03:37 47.76548 -46.74009 39243 ft 516 kts 68°
2026-05-06 03:38 47.78749 -46.63858 39259 ft 516 kts 69°
2026-05-06 03:38 47.80946 -46.53679 39244 ft 516 kts 69°
2026-05-06 03:39 47.83133 -46.43492 39233 ft 516 kts 69°
2026-05-06 03:39 47.85297 -46.33363 39240 ft 516 kts 69°
2026-05-06 03:40 47.87466 -46.23164 39256 ft 516 kts 69°
2026-05-06 03:40 47.89625 -46.12956 39238 ft 516 kts 69°
2026-05-06 03:41 47.91773 -46.02750 39248 ft 515 kts 69°
2026-05-06 03:41 47.93909 -45.92548 39236 ft 514 kts 69°
2026-05-06 03:42 47.96029 -45.82373 39239 ft 513 kts 69°
2026-05-06 03:42 47.98125 -45.72260 39233 ft 513 kts 70°
2026-05-06 03:43 48.00221 -45.62103 39237 ft 511 kts 70°
2026-05-06 03:43 48.02304 -45.51948 39234 ft 511 kts 70°
2026-05-06 03:44 48.04377 -45.41795 39237 ft 510 kts 70°
2026-05-06 03:44 48.06440 -45.31643 39243 ft 510 kts 70°
2026-05-06 03:45 48.08494 -45.21476 39236 ft 510 kts 70°
2026-05-06 03:45 48.10538 -45.11310 39238 ft 510 kts 70°
2026-05-06 03:46 48.12573 -45.01134 39234 ft 510 kts 70°
2026-05-06 03:46 48.14598 -44.90956 39242 ft 510 kts 71°
2026-05-06 03:47 48.16612 -44.80779 39237 ft 510 kts 71°
2026-05-06 03:47 48.18605 -44.70657 39232 ft 509 kts 71°
2026-05-06 03:48 48.20599 -44.60476 39235 ft 509 kts 71°
2026-05-06 03:48 48.22584 -44.50287 39241 ft 509 kts 71°
2026-05-06 03:49 48.24558 -44.40099 39237 ft 509 kts 71°
2026-05-06 03:49 48.26525 -44.29893 39231 ft 509 kts 71°
2026-05-06 03:50 48.28481 -44.19690 39232 ft 508 kts 71°
2026-05-06 03:50 48.30428 -44.09480 39240 ft 508 kts 72°
2026-05-06 03:51 48.32366 -43.99259 39229 ft 509 kts 72°
2026-05-06 03:51 48.34297 -43.89023 39232 ft 509 kts 72°
2026-05-06 03:52 48.36219 -43.78778 39230 ft 509 kts 72°
2026-05-06 03:52 48.38120 -43.68588 39228 ft 510 kts 72°
2026-05-06 03:53 48.40027 -43.58313 39236 ft 510 kts 72°
2026-05-06 03:53 48.41928 -43.48006 39227 ft 511 kts 72°
2026-05-06 03:54 48.43821 -43.37692 39225 ft 511 kts 73°
2026-05-06 03:54 48.45706 -43.27359 39223 ft 511 kts 73°
2026-05-06 03:55 48.47581 -43.17021 39226 ft 512 kts 73°
2026-05-06 03:55 48.49448 -43.06674 39223 ft 511 kts 73°
2026-05-06 03:56 48.51305 -42.96317 39216 ft 511 kts 73°
2026-05-06 03:56 48.53141 -42.86024 39226 ft 511 kts 73°
2026-05-06 03:57 48.54980 -42.75654 39233 ft 512 kts 73°
2026-05-06 03:57 48.56814 -42.65248 39226 ft 512 kts 73°
2026-05-06 03:58 48.58638 -42.54842 39223 ft 513 kts 73°
2026-05-06 03:58 48.60454 -42.44415 39225 ft 513 kts 74°
2026-05-06 03:59 48.62261 -42.33983 39230 ft 513 kts 74°
2026-05-06 03:59 48.64060 -42.23534 39224 ft 514 kts 74°
2026-05-06 04:00 48.65852 -42.13065 39228 ft 514 kts 74°
2026-05-06 04:00 48.67625 -42.02642 39225 ft 514 kts 74°
2026-05-06 04:01 48.69400 -41.92142 39218 ft 515 kts 75°
2026-05-06 04:01 48.71166 -41.81640 39232 ft 515 kts 75°
2026-05-06 04:02 48.72923 -41.71118 39221 ft 516 kts 75°
2026-05-06 04:02 48.74676 -41.60561 39222 ft 516 kts 75°
2026-05-06 04:03 48.76417 -41.50008 39221 ft 517 kts 75°
2026-05-06 04:03 48.78150 -41.39433 39234 ft 517 kts 75°
2026-05-06 04:04 48.79866 -41.28906 39218 ft 517 kts 75°
2026-05-06 04:04 48.81583 -41.18300 39216 ft 518 kts 75°
2026-05-06 04:05 48.83291 -41.07683 39220 ft 518 kts 75°
2026-05-06 04:05 48.84990 -40.97053 39227 ft 518 kts 76°
2026-05-06 04:06 48.86679 -40.86420 39204 ft 518 kts 76°
2026-05-06 04:06 48.88357 -40.75784 39216 ft 518 kts 76°
2026-05-06 04:07 48.90028 -40.65127 39215 ft 518 kts 76°
2026-05-06 04:07 48.91689 -40.54460 39206 ft 518 kts 76°
2026-05-06 04:08 48.93329 -40.43861 39214 ft 518 kts 76°
2026-05-06 04:08 48.94969 -40.33188 39211 ft 518 kts 76°
2026-05-06 04:09 48.96599 -40.22512 39200 ft 518 kts 76°
2026-05-06 04:09 48.98219 -40.11832 39200 ft 518 kts 76°
2026-05-06 04:10 48.99855 -40.01151 39206 ft 517 kts 75°
2026-05-06 04:10 49.02192 -39.90817 39210 ft 515 kts 68°
2026-05-06 04:11 49.04805 -39.80663 39198 ft 515 kts 68°
2026-05-06 04:11 49.07400 -39.70502 39192 ft 514 kts 68°
2026-05-06 04:12 49.09952 -39.60318 39205 ft 514 kts 69°
2026-05-06 04:12 49.12466 -39.50168 39204 ft 514 kts 69°
2026-05-06 04:13 49.14986 -39.39934 39201 ft 514 kts 69°
2026-05-06 04:13 49.17500 -39.29694 39203 ft 515 kts 69°
2026-05-06 04:14 49.20007 -39.19437 39205 ft 516 kts 69°
2026-05-06 04:14 49.22511 -39.09144 39203 ft 516 kts 69°
2026-05-06 04:15 49.25010 -38.98829 39202 ft 517 kts 69°
2026-05-06 04:15 49.27486 -38.88557 39202 ft 518 kts 70°
2026-05-06 04:16 49.29974 -38.78186 39202 ft 519 kts 70°
2026-05-06 04:16 49.32456 -38.67791 39201 ft 519 kts 70°
2026-05-06 04:17 49.34927 -38.57391 39201 ft 519 kts 70°
2026-05-06 04:17 49.37387 -38.46987 39201 ft 519 kts 70°
2026-05-06 04:18 49.39842 -38.36559 39202 ft 519 kts 70°
2026-05-06 04:18 49.42287 -38.26122 39220 ft 519 kts 70°
2026-05-06 04:19 49.44708 -38.15736 39206 ft 520 kts 70°
2026-05-06 04:19 49.47138 -38.05257 39204 ft 520 kts 70°
2026-05-06 04:20 49.49561 -37.94762 39211 ft 521 kts 70°
2026-05-06 04:20 49.51980 -37.84233 39209 ft 521 kts 71°
2026-05-06 04:21 49.54387 -37.73700 39210 ft 522 kts 71°
2026-05-06 04:21 49.56382 -37.64935 39212 ft 522 kts 71°
2026-05-06 04:22 49.58773 -37.54377 39211 ft 522 kts 71°
2026-05-06 04:23 49.62343 -37.38515 39215 ft 522 kts 71°
2026-05-06 04:23 49.64714 -37.27917 39211 ft 522 kts 71°
2026-05-06 04:24 49.67055 -37.17396 39218 ft 522 kts 71°
2026-05-06 04:24 49.69405 -37.06784 39212 ft 522 kts 71°
2026-05-06 04:25 49.71743 -36.96171 39218 ft 522 kts 71°
2026-05-06 04:25 49.74069 -36.85559 39217 ft 521 kts 71°
2026-05-06 04:26 49.76385 -36.74934 39215 ft 521 kts 71°
2026-05-06 04:26 49.78694 -36.64291 39214 ft 522 kts 71°
2026-05-06 04:27 49.80993 -36.53638 39221 ft 522 kts 71°
2026-05-06 04:27 49.83283 -36.42973 39215 ft 522 kts 72°
2026-05-06 04:28 49.85564 -36.32291 39223 ft 522 kts 71°
2026-05-06 04:28 49.87838 -36.21588 39216 ft 523 kts 71°
2026-05-06 04:29 49.90104 -36.10864 39206 ft 523 kts 71°
2026-05-06 04:29 49.92360 -36.00129 39216 ft 523 kts 72°
2026-05-06 04:30 49.94595 -35.89441 39217 ft 523 kts 72°
2026-05-06 04:30 49.96830 -35.78692 39216 ft 523 kts 72°
2026-05-06 04:31 49.99055 -35.67936 39211 ft 522 kts 72°
2026-05-06 04:31 50.01268 -35.57180 39208 ft 521 kts 72°
2026-05-06 04:32 50.03468 -35.46429 39211 ft 520 kts 72°
2026-05-06 04:32 50.05652 -35.35700 39205 ft 519 kts 72°
2026-05-06 04:33 50.07821 -35.24981 39203 ft 518 kts 72°
2026-05-06 04:33 50.09976 -35.14277 39203 ft 518 kts 72°
2026-05-06 04:34 50.12108 -35.03628 39210 ft 517 kts 72°
2026-05-06 04:34 50.14239 -34.92929 39205 ft 517 kts 72°
2026-05-06 04:35 50.16356 -34.82236 39200 ft 516 kts 72°
2026-05-06 04:35 50.18464 -34.71534 39202 ft 516 kts 73°
2026-05-06 04:36 50.20559 -34.60833 39196 ft 516 kts 73°
2026-05-06 04:36 50.22646 -34.50119 39196 ft 516 kts 73°
2026-05-06 04:37 50.24722 -34.39399 39200 ft 516 kts 73°
2026-05-06 04:37 50.26789 -34.28661 39180 ft 516 kts 73°
2026-05-06 04:38 50.28854 -34.17878 39223 ft 517 kts 73°
2026-05-06 04:38 50.30906 -34.07102 39197 ft 517 kts 73°
2026-05-06 04:39 50.32936 -33.96378 39189 ft 517 kts 73°
2026-05-06 04:39 50.34970 -33.85571 39186 ft 517 kts 73°
2026-05-06 04:40 50.36992 -33.74769 39189 ft 517 kts 73°
2026-05-06 04:40 50.39007 -33.63938 39183 ft 517 kts 73°
2026-05-06 04:41 50.41010 -33.53109 39179 ft 517 kts 73°
2026-05-06 04:41 50.43000 -33.42285 39182 ft 516 kts 73°
2026-05-06 04:42 50.44978 -33.31466 39185 ft 516 kts 74°
2026-05-06 04:42 50.46944 -33.20643 39180 ft 516 kts 74°
2026-05-06 04:43 50.48902 -33.09807 39174 ft 515 kts 74°
2026-05-06 04:43 50.50847 -32.98973 39170 ft 515 kts 74°
2026-05-06 04:44 50.52768 -32.88211 39163 ft 515 kts 74°
2026-05-06 04:44 50.54692 -32.77367 39163 ft 514 kts 74°
2026-05-06 04:45 50.56602 -32.66535 39162 ft 514 kts 74°
2026-05-06 04:45 50.58505 -32.55681 39153 ft 514 kts 75°
2026-05-06 04:46 50.60396 -32.44826 39151 ft 514 kts 75°
2026-05-06 04:46 50.62275 -32.33968 39133 ft 514 kts 75°
2026-05-06 04:47 50.64147 -32.23092 39145 ft 514 kts 75°
2026-05-06 04:47 50.66007 -32.12215 39143 ft 514 kts 75°
2026-05-06 04:48 50.67861 -32.01305 39133 ft 515 kts 75°
2026-05-06 04:48 50.69693 -31.90454 39137 ft 515 kts 75°
2026-05-06 04:49 50.71526 -31.79531 39125 ft 515 kts 75°
2026-05-06 04:49 50.73348 -31.68606 39125 ft 515 kts 75°
2026-05-06 04:50 50.75158 -31.57681 39117 ft 514 kts 75°
2026-05-06 04:50 50.76959 -31.46744 39112 ft 514 kts 75°
2026-05-06 04:51 50.78746 -31.35818 39110 ft 513 kts 75°
2026-05-06 04:51 50.80519 -31.24906 39104 ft 512 kts 75°
2026-05-06 04:52 50.82281 -31.13994 39106 ft 512 kts 75°
2026-05-06 04:52 50.84029 -31.03094 39104 ft 511 kts 75°
2026-05-06 04:53 50.85766 -30.92191 39098 ft 510 kts 76°
2026-05-06 04:53 50.87478 -30.81377 39098 ft 510 kts 76°
2026-05-06 04:54 50.89192 -30.70480 39101 ft 509 kts 76°
2026-05-06 04:54 50.90892 -30.59594 39098 ft 509 kts 76°
2026-05-06 04:55 50.92581 -30.48706 39097 ft 509 kts 76°
2026-05-06 04:55 50.94259 -30.37820 39083 ft 508 kts 76°
2026-05-06 04:56 50.95927 -30.26927 39099 ft 508 kts 76°
2026-05-06 04:56 50.97584 -30.16026 39097 ft 509 kts 76°
2026-05-06 04:57 50.99236 -30.05101 39110 ft 509 kts 76°
2026-05-06 04:57 51.01304 -29.94360 39095 ft 508 kts 68°
2026-05-06 04:58 51.03958 -29.83950 39097 ft 509 kts 67°
2026-05-06 04:58 51.06614 -29.73602 39113 ft 509 kts 67°
2026-05-06 04:59 51.09252 -29.63137 39112 ft 509 kts 67°
2026-05-06 04:59 51.11857 -29.52648 39099 ft 509 kts 68°
2026-05-06 05:00 51.14444 -29.42162 39106 ft 509 kts 68°
2026-05-06 05:00 51.17019 -29.31677 39125 ft 508 kts 68°
2026-05-06 05:01 51.19587 -29.21180 39121 ft 507 kts 68°
2026-05-06 05:01 51.22137 -29.10710 39109 ft 506 kts 68°
2026-05-06 05:02 51.24672 -29.00256 39112 ft 504 kts 68°
2026-05-06 05:02 51.27174 -28.89882 39113 ft 503 kts 68°
2026-05-06 05:03 51.29675 -28.79465 39126 ft 502 kts 68°
2026-05-06 05:03 51.32162 -28.69057 39120 ft 501 kts 68°
2026-05-06 05:04 51.34637 -28.58650 39126 ft 500 kts 68°
2026-05-06 05:04 51.37103 -28.48229 39128 ft 501 kts 69°
2026-05-06 05:05 51.39558 -28.37804 39144 ft 501 kts 69°
2026-05-06 05:05 51.42007 -28.27357 39125 ft 501 kts 69°
2026-05-06 05:06 51.44444 -28.16908 39128 ft 501 kts 69°
2026-05-06 05:06 51.46857 -28.06509 39135 ft 501 kts 69°
2026-05-06 05:07 51.49278 -27.96030 39141 ft 500 kts 69°
2026-05-06 05:07 51.51683 -27.85561 39139 ft 500 kts 69°
2026-05-06 05:08 51.54078 -27.75091 39137 ft 499 kts 69°
2026-05-06 05:08 51.56459 -27.64628 39138 ft 498 kts 69°
2026-05-06 05:09 51.58826 -27.54172 39147 ft 498 kts 69°
2026-05-06 05:09 51.61182 -27.43715 39154 ft 497 kts 69°
2026-05-06 05:10 51.63131 -27.35029 39145 ft 496 kts 69°
2026-05-06 05:10 51.65461 -27.24592 39151 ft 495 kts 70°
2026-05-06 05:11 51.67780 -27.14152 39152 ft 494 kts 70°
2026-05-06 05:11 51.70089 -27.03709 39156 ft 493 kts 70°
2026-05-06 05:12 51.72381 -26.93288 39153 ft 493 kts 70°
2026-05-06 05:12 51.74647 -26.82932 39154 ft 492 kts 70°
2026-05-06 05:13 51.76914 -26.72518 39157 ft 492 kts 70°
2026-05-06 05:13 51.79175 -26.62083 39167 ft 491 kts 70°
2026-05-06 05:14 51.81419 -26.51673 39161 ft 490 kts 70°
2026-05-06 05:14 51.83651 -26.41264 39160 ft 490 kts 70°
2026-05-06 05:15 51.85871 -26.30856 39160 ft 489 kts 70°
2026-05-06 05:15 51.88079 -26.20451 39165 ft 489 kts 70°
2026-05-06 05:16 51.90275 -26.10054 39165 ft 488 kts 71°
2026-05-06 05:16 51.92458 -25.99663 39164 ft 487 kts 71°
2026-05-06 05:17 51.94630 -25.89270 39168 ft 486 kts 71°
2026-05-06 05:17 51.96775 -25.78953 39166 ft 486 kts 71°
2026-05-06 05:18 51.98924 -25.68560 39164 ft 486 kts 71°
2026-05-06 05:18 52.01063 -25.58166 39163 ft 486 kts 71°
2026-05-06 05:19 52.03198 -25.47736 39164 ft 486 kts 71°
2026-05-06 05:19 52.05321 -25.37309 39164 ft 486 kts 71°
2026-05-06 05:20 52.07436 -25.26862 39171 ft 486 kts 71°
2026-05-06 05:20 52.09540 -25.16418 39165 ft 486 kts 71°
2026-05-06 05:21 52.11637 -25.05956 39168 ft 486 kts 71°
2026-05-06 05:21 52.13708 -24.95563 39165 ft 485 kts 71°
2026-05-06 05:22 52.15781 -24.85108 39165 ft 485 kts 71°
2026-05-06 05:22 52.17842 -24.74652 39168 ft 485 kts 71°
2026-05-06 05:23 52.19896 -24.64177 39165 ft 485 kts 71°
2026-05-06 05:23 52.22959 -24.48454 39165 ft 485 kts 71°
2026-05-06 05:24 52.24989 -24.37958 39171 ft 485 kts 71°
2026-05-06 05:24 52.27012 -24.27443 39167 ft 485 kts 71°
2026-05-06 05:25 52.29026 -24.16916 39166 ft 486 kts 71°
2026-05-06 05:25 52.31019 -24.06442 39163 ft 486 kts 71°
2026-05-06 05:26 52.33016 -23.95885 39158 ft 486 kts 71°
2026-05-06 05:26 52.35003 -23.85324 39161 ft 486 kts 71°
2026-05-06 05:27 52.36985 -23.74728 39158 ft 486 kts 71°
2026-05-06 05:27 52.38954 -23.64146 39156 ft 486 kts 71°
2026-05-06 05:28 52.40913 -23.53553 39158 ft 486 kts 71°
2026-05-06 05:28 52.42863 -23.42945 39166 ft 486 kts 71°
2026-05-06 05:29 52.44794 -23.32384 39155 ft 486 kts 71°
2026-05-06 05:29 52.46726 -23.21756 39151 ft 486 kts 71°
2026-05-06 05:30 52.48648 -23.11122 39155 ft 486 kts 71°
2026-05-06 05:30 52.50561 -23.00475 39161 ft 486 kts 71°
2026-05-06 05:31 52.52465 -22.89818 39148 ft 487 kts 71°
2026-05-06 05:31 52.54366 -22.79115 39144 ft 487 kts 72°
2026-05-06 05:32 52.56240 -22.68496 39142 ft 487 kts 72°
2026-05-06 05:32 52.58117 -22.57796 39142 ft 487 kts 72°
2026-05-06 05:33 52.59987 -22.47078 39146 ft 487 kts 72°
2026-05-06 05:33 52.61845 -22.36361 39141 ft 487 kts 72°
2026-05-06 05:34 52.63694 -22.25632 39139 ft 487 kts 72°
2026-05-06 05:34 52.65534 -22.14886 39139 ft 487 kts 72°
2026-05-06 05:35 52.67364 -22.04133 39151 ft 487 kts 72°
2026-05-06 05:35 52.69183 -21.93388 39134 ft 487 kts 72°
2026-05-06 05:36 52.70993 -21.82622 39135 ft 487 kts 72°
2026-05-06 05:36 52.72782 -21.71915 39134 ft 487 kts 72°
2026-05-06 05:37 52.74572 -21.61134 39133 ft 486 kts 72°
2026-05-06 05:37 52.76350 -21.50360 39140 ft 486 kts 72°
2026-05-06 05:38 52.78117 -21.39580 39126 ft 486 kts 72°
2026-05-06 05:38 52.79872 -21.28808 39128 ft 485 kts 72°
2026-05-06 05:39 52.81618 -21.18029 39124 ft 485 kts 72°
2026-05-06 05:39 52.83354 -21.07235 39125 ft 485 kts 72°
2026-05-06 05:40 52.85078 -20.96449 39127 ft 485 kts 72°
2026-05-06 05:40 52.86781 -20.85724 39125 ft 485 kts 72°
2026-05-06 05:41 52.88484 -20.74929 39125 ft 485 kts 72°
2026-05-06 05:41 52.90180 -20.64111 39137 ft 485 kts 72°
2026-05-06 05:42 52.91867 -20.53278 39124 ft 486 kts 72°
2026-05-06 05:42 52.93546 -20.42423 39116 ft 486 kts 72°
2026-05-06 05:43 52.95213 -20.31570 39116 ft 486 kts 73°
2026-05-06 05:43 52.96862 -20.20768 39118 ft 486 kts 73°
2026-05-06 05:44 52.98511 -20.09898 39126 ft 486 kts 73°
2026-05-06 05:44 52.99960 -19.98923 39116 ft 489 kts 79°
2026-05-06 05:45 53.00353 -19.87623 39121 ft 491 kts 86°
2026-05-06 05:45 53.00510 -19.76292 39115 ft 491 kts 86°
2026-05-06 05:46 53.00680 -19.64947 39135 ft 491 kts 85°
2026-05-06 05:46 53.00870 -19.53607 39124 ft 491 kts 85°
2026-05-06 05:47 53.01061 -19.42260 39118 ft 491 kts 85°
2026-05-06 05:47 53.01240 -19.30980 39112 ft 492 kts 85°
2026-05-06 05:48 53.01409 -19.19625 39113 ft 492 kts 86°
2026-05-06 05:48 53.01565 -19.08268 39122 ft 492 kts 85°
2026-05-06 05:49 53.01710 -18.96905 39122 ft 492 kts 86°
2026-05-06 05:49 53.01845 -18.85520 39112 ft 492 kts 86°
2026-05-06 05:50 53.01969 -18.74146 39112 ft 492 kts 86°
2026-05-06 05:50 53.02082 -18.62776 39117 ft 492 kts 86°
2026-05-06 05:51 53.02183 -18.51490 39117 ft 492 kts 86°
2026-05-06 05:51 53.02275 -18.40115 39114 ft 492 kts 86°
2026-05-06 05:52 53.02356 -18.28751 39110 ft 492 kts 86°
2026-05-06 05:52 53.02425 -18.17393 39110 ft 491 kts 86°
2026-05-06 05:53 53.02484 -18.06038 39113 ft 491 kts 86°
2026-05-06 05:53 53.02532 -17.94696 39116 ft 491 kts 86°
2026-05-06 05:54 53.02570 -17.83354 39105 ft 491 kts 86°
2026-05-06 05:54 53.02596 -17.72089 39104 ft 491 kts 86°
2026-05-06 05:55 53.02612 -17.60680 39105 ft 491 kts 86°
2026-05-06 05:55 53.02617 -17.49403 39116 ft 491 kts 86°
2026-05-06 05:56 53.02611 -17.38057 39105 ft 491 kts 87°
2026-05-06 05:56 53.02594 -17.26708 39103 ft 492 kts 87°
2026-05-06 05:57 53.02567 -17.15346 39103 ft 492 kts 87°
2026-05-06 05:57 53.02528 -17.03988 39105 ft 492 kts 87°
2026-05-06 05:58 53.02479 -16.92625 39115 ft 492 kts 87°
2026-05-06 05:58 53.02419 -16.81249 39102 ft 492 kts 87°
2026-05-06 05:59 53.02348 -16.69894 39099 ft 492 kts 87°
2026-05-06 05:59 53.02281 -16.60461 39107 ft 491 kts 88°
2026-05-06 06:00 53.02191 -16.49123 39106 ft 491 kts 88°
2026-05-06 06:00 53.02090 -16.37784 39110 ft 491 kts 88°
2026-05-06 06:01 53.01978 -16.26433 39103 ft 491 kts 88°
2026-05-06 06:01 53.01855 -16.15086 39102 ft 492 kts 88°
2026-05-06 06:02 53.01721 -16.03736 39103 ft 492 kts 88°
2026-05-06 06:02 53.01577 -15.92381 39098 ft 492 kts 88°
2026-05-06 06:03 53.01422 -15.81098 39106 ft 492 kts 88°
2026-05-06 06:03 53.01256 -15.69738 39106 ft 492 kts 88°
2026-05-06 06:04 53.01079 -15.58370 39103 ft 492 kts 88°
2026-05-06 06:04 53.00891 -15.46991 39100 ft 492 kts 88°
2026-05-06 06:05 53.00692 -15.35615 39113 ft 493 kts 89°
2026-05-06 06:05 53.00482 -15.24240 39104 ft 493 kts 89°
2026-05-06 06:06 53.00262 -15.12877 39099 ft 493 kts 89°
2026-05-06 06:06 53.00033 -15.01520 39102 ft 492 kts 89°
2026-05-06 06:07 52.99937 -14.90247 39102 ft 491 kts 86°
2026-05-06 06:07 53.00024 -14.78922 39112 ft 491 kts 86°
2026-05-06 06:08 53.00088 -14.67585 39102 ft 491 kts 86°
2026-05-06 06:08 53.00106 -14.56239 39100 ft 491 kts 87°
2026-05-06 06:09 53.00104 -14.44909 39098 ft 491 kts 87°
2026-05-06 06:09 53.00092 -14.33586 39114 ft 491 kts 87°
2026-05-06 06:10 53.00071 -14.22246 39103 ft 491 kts 87°
2026-05-06 06:10 53.00042 -14.10984 39099 ft 491 kts 87°
2026-05-06 06:11 53.00076 -13.99635 39097 ft 490 kts 84°
2026-05-06 06:11 53.00937 -13.88454 39099 ft 487 kts 78°
2026-05-06 06:12 53.01982 -13.77331 39101 ft 488 kts 78°
2026-05-06 06:12 53.03000 -13.66176 39096 ft 489 kts 79°
2026-05-06 06:13 53.03980 -13.55006 39096 ft 489 kts 79°
2026-05-06 06:13 53.04942 -13.43806 39090 ft 489 kts 79°
2026-05-06 06:14 53.05892 -13.32600 39102 ft 490 kts 79°
2026-05-06 06:14 53.06834 -13.21378 39091 ft 490 kts 79°
2026-05-06 06:15 53.07767 -13.10145 39087 ft 491 kts 79°
2026-05-06 06:15 53.08691 -12.98892 39088 ft 491 kts 79°
2026-05-06 06:16 53.09599 -12.87700 39085 ft 491 kts 79°
2026-05-06 06:16 53.10502 -12.76433 39091 ft 491 kts 80°
2026-05-06 06:17 53.11395 -12.65147 39081 ft 492 kts 80°
2026-05-06 06:17 53.12278 -12.53852 39082 ft 492 kts 80°
2026-05-06 06:18 53.13150 -12.42545 39081 ft 492 kts 80°
2026-05-06 06:18 53.14013 -12.31225 39090 ft 492 kts 81°
2026-05-06 06:19 53.14866 -12.19894 39085 ft 493 kts 81°
2026-05-06 06:19 53.15708 -12.08559 39078 ft 494 kts 81°
2026-05-06 06:20 53.16540 -11.97204 39079 ft 494 kts 81°
2026-05-06 06:20 53.17362 -11.85831 39079 ft 494 kts 81°
2026-05-06 06:21 53.18174 -11.74450 39080 ft 494 kts 81°
2026-05-06 06:21 53.18971 -11.63114 39078 ft 495 kts 81°
2026-05-06 06:22 53.19762 -11.51708 39074 ft 495 kts 81°
2026-05-06 06:22 53.20542 -11.40308 39076 ft 495 kts 81°
2026-05-06 06:23 53.21311 -11.28893 39079 ft 495 kts 82°
2026-05-06 06:23 53.22070 -11.17478 39074 ft 495 kts 82°
2026-05-06 06:24 53.22818 -11.06044 39065 ft 495 kts 82°
2026-05-06 06:24 53.23554 -10.94615 39065 ft 495 kts 82°
2026-05-06 06:25 53.24276 -10.83251 39063 ft 495 kts 82°
2026-05-06 06:26 53.25343 -10.66118 39065 ft 495 kts 82°
2026-05-06 06:26 53.26041 -10.54686 39068 ft 494 kts 82°
2026-05-06 06:27 53.26728 -10.43244 39066 ft 494 kts 82°
2026-05-06 06:27 53.27404 -10.31808 39065 ft 495 kts 82°
2026-05-06 06:28 53.28069 -10.20370 39071 ft 495 kts 83°
2026-05-06 06:28 53.28723 -10.08918 39066 ft 495 kts 83°
2026-05-06 06:29 53.29363 -9.97531 39071 ft 495 kts 83°
2026-05-06 06:29 53.29996 -9.86065 39072 ft 495 kts 83°
2026-05-06 06:30 53.30618 -9.74590 39078 ft 496 kts 83°
2026-05-06 06:30 53.31231 -9.63095 39070 ft 496 kts 83°
2026-05-06 06:31 53.31832 -9.51584 39070 ft 497 kts 83°
2026-05-06 06:31 53.32423 -9.40065 39056 ft 497 kts 84°
2026-05-06 06:32 53.33004 -9.28530 39058 ft 498 kts 84°
2026-05-06 06:32 53.33574 -9.16970 39054 ft 498 kts 84°
2026-05-06 06:33 53.34133 -9.05420 39048 ft 498 kts 84°
2026-05-06 06:33 53.34677 -8.93932 39064 ft 498 kts 84°
2026-05-06 06:34 53.35214 -8.82366 39049 ft 498 kts 84°
2026-05-06 06:34 53.35739 -8.70801 39049 ft 499 kts 84°
2026-05-06 06:35 53.36255 -8.59213 39046 ft 499 kts 84°
2026-05-06 06:35 53.36758 -8.47630 39046 ft 498 kts 84°
2026-05-06 06:36 53.37250 -8.36055 39044 ft 498 kts 85°
2026-05-06 06:36 53.37731 -8.24473 39052 ft 498 kts 85°
2026-05-06 06:37 53.38200 -8.12899 39044 ft 498 kts 85°
2026-05-06 06:37 53.38656 -8.01389 39043 ft 498 kts 85°
2026-05-06 06:38 53.39103 -7.89826 39046 ft 497 kts 85°
2026-05-06 06:38 53.39541 -7.78259 39043 ft 497 kts 85°
2026-05-06 06:39 53.40046 -7.66710 39042 ft 497 kts 84°
2026-05-06 06:39 53.40588 -7.55159 39043 ft 496 kts 85°
2026-05-06 06:40 53.41112 -7.43613 39042 ft 496 kts 85°
2026-05-06 06:40 53.41613 -7.32085 39044 ft 496 kts 85°
2026-05-06 06:41 53.42100 -7.20547 39050 ft 496 kts 85°
2026-05-06 06:41 53.42575 -7.09001 39043 ft 497 kts 85°
2026-05-06 06:42 53.43041 -6.97448 39040 ft 497 kts 85°
2026-05-06 06:42 53.43494 -6.85936 39042 ft 497 kts 85°
2026-05-06 06:43 53.43938 -6.74355 39043 ft 498 kts 85°
2026-05-06 06:43 53.44372 -6.62748 39040 ft 499 kts 86°
2026-05-06 06:44 53.44796 -6.51115 39039 ft 500 kts 86°
2026-05-06 06:44 53.45208 -6.39474 39038 ft 500 kts 86°
2026-05-06 06:45 53.45610 -6.27806 39038 ft 501 kts 86°
2026-05-06 06:45 53.46001 -6.16146 39046 ft 501 kts 86°
2026-05-06 06:46 53.46380 -6.04475 39039 ft 500 kts 86°
2026-05-06 06:46 53.46747 -5.92812 39033 ft 500 kts 86°
2026-05-06 06:47 53.47101 -5.81237 39031 ft 499 kts 86°
2026-05-06 06:47 53.47445 -5.69608 39032 ft 499 kts 86°
2026-05-06 06:48 53.47724 -5.59942 39036 ft 498 kts 86°
2026-05-06 06:48 53.47956 -5.48327 39037 ft 498 kts 91°
2026-05-06 06:49 53.47431 -5.36730 39035 ft 497 kts 95°
2026-05-06 06:49 53.46784 -5.25167 39035 ft 498 kts 95°
2026-05-06 06:50 53.46150 -5.13591 39041 ft 500 kts 95°
2026-05-06 06:50 53.45524 -5.01868 39046 ft 509 kts 95°
2026-05-06 06:51 53.44888 -4.89980 39039 ft 513 kts 95°
2026-05-06 06:51 53.44236 -4.78023 39029 ft 515 kts 95°
2026-05-06 06:52 53.43569 -4.66058 39022 ft 514 kts 95°
2026-05-06 06:52 53.42897 -4.54220 39019 ft 513 kts 96°
2026-05-06 06:53 53.42210 -4.42341 39019 ft 511 kts 96°
2026-05-06 06:53 53.41514 -4.30508 39019 ft 509 kts 96°
2026-05-06 06:54 53.40810 -4.18730 39023 ft 507 kts 96°
2026-05-06 06:54 53.40095 -4.06976 39025 ft 506 kts 96°
2026-05-06 06:55 53.39370 -3.95254 39025 ft 505 kts 96°
2026-05-06 06:55 53.38634 -3.83543 39030 ft 505 kts 96°
2026-05-06 06:56 53.37888 -3.71847 39033 ft 505 kts 96°
2026-05-06 06:56 53.37128 -3.60128 39033 ft 506 kts 96°
2026-05-06 06:57 53.36357 -3.48403 39036 ft 507 kts 97°
2026-05-06 06:57 53.35577 -3.36738 39047 ft 507 kts 97°
2026-05-06 06:58 53.34780 -3.24984 39058 ft 508 kts 97°
2026-05-06 06:58 53.33971 -3.13231 39064 ft 509 kts 97°
2026-05-06 06:59 53.33150 -3.01478 39069 ft 509 kts 97°
2026-05-06 06:59 53.32318 -2.89728 39075 ft 509 kts 97°
2026-05-06 07:00 53.31473 -2.77974 39045 ft 508 kts 97°
2026-05-06 07:00 53.30617 -2.66232 39060 ft 508 kts 97°
2026-05-06 07:01 53.29751 -2.54507 39065 ft 508 kts 98°
2026-05-06 07:01 53.28874 -2.42794 39072 ft 508 kts 98°
2026-05-06 07:02 53.27985 -2.31092 39073 ft 507 kts 98°
2026-05-06 07:02 53.27086 -2.19407 39078 ft 507 kts 98°
2026-05-06 07:03 53.26183 -2.07812 39071 ft 506 kts 98°
2026-05-06 07:03 53.25263 -1.96154 39059 ft 506 kts 98°
2026-05-06 07:04 53.24332 -1.84508 39036 ft 506 kts 98°
2026-05-06 07:04 53.23391 -1.72882 39030 ft 505 kts 98°
2026-05-06 07:05 53.22438 -1.61260 39037 ft 504 kts 98°
2026-05-06 07:05 53.21477 -1.49672 39029 ft 504 kts 99°
2026-05-06 07:06 53.20510 -1.38160 39032 ft 504 kts 99°
2026-05-06 07:06 53.19526 -1.26581 39033 ft 504 kts 99°
2026-05-06 07:07 53.18532 -1.15020 39031 ft 504 kts 99°
2026-05-06 07:07 53.17527 -1.03459 39029 ft 504 kts 99°
2026-05-06 07:08 53.16510 -0.91910 39026 ft 503 kts 99°
2026-05-06 07:08 53.15483 -0.80373 39020 ft 503 kts 99°
2026-05-06 07:09 53.14446 -0.68850 39018 ft 503 kts 99°
2026-05-06 07:09 53.13397 -0.57328 39022 ft 503 kts 99°
2026-05-06 07:10 53.12345 -0.45893 39020 ft 503 kts 99°
2026-05-06 07:10 53.11274 -0.34380 39021 ft 502 kts 99°
2026-05-06 07:11 53.10193 -0.22885 39025 ft 502 kts 100°
2026-05-06 07:11 53.09100 -0.11389 39021 ft 503 kts 100°
2026-05-06 07:12 53.07998 0.00087 38992 ft 503 kts 100°
2026-05-06 07:12 53.06883 0.11568 38989 ft 502 kts 100°
2026-05-06 07:13 53.05759 0.23032 38987 ft 502 kts 100°
2026-05-06 07:13 53.04630 0.34418 38983 ft 502 kts 100°
2026-05-06 07:14 53.03484 0.45867 38978 ft 502 kts 101°
2026-05-06 07:14 53.02328 0.57299 38972 ft 502 kts 101°
2026-05-06 07:15 53.01161 0.68732 38980 ft 502 kts 101°
2026-05-06 07:15 52.99982 0.80163 38973 ft 503 kts 101°
2026-05-06 07:16 52.98792 0.91607 38973 ft 503 kts 101°
2026-05-06 07:16 52.97592 1.02967 38977 ft 502 kts 102°
2026-05-06 07:17 52.96286 1.14348 38963 ft 502 kts 103°
2026-05-06 07:17 52.94943 1.25692 38957 ft 501 kts 103°
2026-05-06 07:18 52.93601 1.37023 38972 ft 501 kts 102°
2026-05-06 07:18 52.92259 1.48340 38960 ft 500 kts 102°
2026-05-06 07:19 52.90909 1.59651 38959 ft 500 kts 103°
2026-05-06 07:19 52.89550 1.70938 38952 ft 500 kts 103°
2026-05-06 07:20 52.88179 1.82219 38946 ft 500 kts 103°
2026-05-06 07:20 52.86796 1.93501 38950 ft 500 kts 103°
2026-05-06 07:21 52.85411 2.04708 38716 ft 502 kts 103°
2026-05-06 07:21 52.84712 2.10331 37767 ft 493 kts 103°
2026-05-06 07:21 52.84025 2.15846 36994 ft 489 kts 103°
2026-05-06 07:21 52.83335 2.21346 36134 ft 489 kts 103°
2026-05-06 07:22 52.82642 2.26849 35225 ft 490 kts 103°
2026-05-06 07:22 52.81934 2.32446 34235 ft 509 kts 103°
2026-05-06 07:22 52.81204 2.38195 33102 ft 510 kts 103°
2026-05-06 07:22 52.80477 2.43923 31918 ft 508 kts 103°
2026-05-06 07:23 52.79748 2.49633 30702 ft 507 kts 104°
2026-05-06 07:23 52.79025 2.55261 29454 ft 498 kts 104°
2026-05-06 07:23 52.78303 2.60832 28661 ft 496 kts 104°
2026-05-06 07:23 52.77581 2.66375 28009 ft 490 kts 104°
2026-05-06 07:24 52.76882 2.71754 27117 ft 467 kts 104°
2026-05-06 07:24 52.76209 2.76913 26350 ft 454 kts 104°
2026-05-06 07:24 52.75523 2.82119 25560 ft 471 kts 104°
2026-05-06 07:24 52.74841 2.87411 24844 ft 467 kts 104°
2026-05-06 07:25 52.74189 2.92526 23749 ft 445 kts 104°
2026-05-06 07:25 52.73536 2.97547 22302 ft 453 kts 105°
2026-05-06 07:25 52.72504 3.02427 21404 ft 447 kts 120°
2026-05-06 07:25 52.70953 3.06723 20977 ft 425 kts 123°
2026-05-06 07:26 52.69425 3.10770 20539 ft 417 kts 122°
2026-05-06 07:26 52.67928 3.14838 20029 ft 414 kts 122°
2026-05-06 07:26 52.66453 3.18940 19625 ft 418 kts 122°
2026-05-06 07:26 52.64981 3.23091 19318 ft 418 kts 121°
2026-05-06 07:27 52.63520 3.27240 19000 ft 419 kts 121°
2026-05-06 07:27 52.62059 3.31366 18747 ft 417 kts 122°
2026-05-06 07:27 52.60541 3.35563 18685 ft 434 kts 122°
2026-05-06 07:27 52.58999 3.39800 18516 ft 423 kts 121°
2026-05-06 07:28 52.57518 3.43859 18025 ft 406 kts 122°
2026-05-06 07:28 52.56082 3.47777 17479 ft 396 kts 122°
2026-05-06 07:28 52.53240 3.55400 16286 ft 386 kts 122°
2026-05-06 07:29 52.51834 3.59122 15690 ft 382 kts 122°
2026-05-06 07:29 52.50446 3.62789 15076 ft 372 kts 122°
2026-05-06 07:29 52.49099 3.66343 14478 ft 363 kts 122°
2026-05-06 07:29 52.47793 3.69785 13916 ft 357 kts 122°
2026-05-06 07:30 52.46453 3.73314 13336 ft 363 kts 122°
2026-05-06 07:30 52.45129 3.76789 12747 ft 354 kts 122°
2026-05-06 07:30 52.43852 3.80123 12165 ft 345 kts 122°
2026-05-06 07:30 52.42559 3.83485 11615 ft 353 kts 122°
2026-05-06 07:31 52.41243 3.86903 11081 ft 355 kts 122°
2026-05-06 07:31 52.39928 3.90314 10658 ft 351 kts 122°
2026-05-06 07:31 52.38643 3.93643 10549 ft 338 kts 122°
2026-05-06 07:31 52.37420 3.96805 10522 ft 317 kts 122°
2026-05-06 07:32 52.36271 3.99763 10520 ft 305 kts 122°
2026-05-06 07:32 52.35151 4.02638 10323 ft 297 kts 122°
2026-05-06 07:32 52.34042 4.05482 9897 ft 298 kts 122°
2026-05-06 07:32 52.32925 4.08339 9343 ft 297 kts 122°
2026-05-06 07:33 52.31824 4.11143 8753 ft 289 kts 122°
2026-05-06 07:33 52.30739 4.13869 8190 ft 284 kts 122°
2026-05-06 07:33 52.29668 4.16526 7596 ft 276 kts 122°
2026-05-06 07:33 52.28612 4.19084 7052 ft 268 kts 122°
2026-05-06 07:34 52.27582 4.21548 6488 ft 258 kts 123°
2026-05-06 07:34 52.26584 4.23921 5857 ft 250 kts 121°
2026-05-06 07:34 52.25593 4.26202 5251 ft 243 kts 122°
2026-05-06 07:34 52.24617 4.28424 4642 ft 238 kts 122°
2026-05-06 07:35 52.23645 4.30576 4007 ft 233 kts 122°
2026-05-06 07:35 52.22702 4.32645 3430 ft 227 kts 122°
2026-05-06 07:35 52.21826 4.34732 2831 ft 217 kts 110°
2026-05-06 07:35 52.21309 4.36993 2279 ft 209 kts 103°
2026-05-06 07:36 52.20893 4.39182 2086 ft 198 kts 102°
2026-05-06 07:36 52.20492 4.41280 2007 ft 186 kts 103°
2026-05-06 07:36 52.20120 4.43285 2011 ft 184 kts 102°
2026-05-06 07:36 52.19748 4.45280 2002 ft 185 kts 102°
2026-05-06 07:37 52.19505 4.46610 2004 ft 184 kts 97°
2026-05-06 07:37 52.19596 4.48618 2013 ft 179 kts 63°
2026-05-06 07:37 52.20153 4.50445 2032 ft 183 kts 63°
2026-05-06 07:37 52.20711 4.52276 2054 ft 177 kts 60°
2026-05-06 07:38 52.21317 4.53973 1992 ft 167 kts 57°
2026-05-06 07:38 52.21902 4.55517 1966 ft 151 kts 57°
2026-05-06 07:38 52.22445 4.56933 1990 ft 146 kts 56°
2026-05-06 07:38 52.22980 4.58321 1986 ft 143 kts 56°
2026-05-06 07:39 52.23509 4.59693 2009 ft 141 kts 57°
2026-05-06 07:39 52.24040 4.61073 1836 ft 144 kts 57°
2026-05-06 07:39 52.24567 4.62444 1639 ft 139 kts 56°
2026-05-06 07:39 52.25054 4.63708 1428 ft 125 kts 55°
2026-05-06 07:40 52.25518 4.64903 1164 ft 128 kts 55°
2026-05-06 07:40 52.25985 4.66116 987 ft 125 kts 55°
2026-05-06 07:40 52.26449 4.67333 823 ft 127 kts 55°
2026-05-06 07:40 52.26927 4.68548 667 ft 127 kts 55°
2026-05-06 07:41 52.27384 4.69780 568 ft 129 kts 56°
2026-05-06 07:41 52.27862 4.71009 404 ft 131 kts 54°
2026-05-06 07:41 52.28340 4.72241 219 ft 127 kts 56°
2026-05-06 07:41 52.28791 4.73423 51 ft 118 kts 55°
2026-05-06 07:42 52.29211 4.74502 8 ft 101 kts 57°
2026-05-06 07:42 52.29508 4.75279 1 ft 59 kts 57°
2026-05-06 07:42 52.29649 4.75643 3 ft 28 kts 54°
2026-05-06 07:42 52.29809 4.75826 1 ft 28 kts 27°
2026-05-06 07:43 52.29923 4.75923 2 ft 15 kts 28°
2026-05-06 07:43 52.29996 4.76003 3 ft 11 kts 47°
2026-05-06 07:43 52.30040 4.76112 2 ft 11 kts 58°
2026-05-06 07:43 52.30083 4.76223 2 ft 12 kts 58°
2026-05-06 07:44 52.30128 4.76340 2 ft 12 kts 58°
2026-05-06 07:44 52.30172 4.76457 2 ft 12 kts 58°
2026-05-06 07:44 52.30217 4.76573 2 ft 12 kts 58°
2026-05-06 07:44 52.30261 4.76688 2 ft 12 kts 57°
2026-05-06 07:45 52.30306 4.76805 2 ft 12 kts 58°
2026-05-06 07:45 52.30350 4.76922 2 ft 12 kts 58°
2026-05-06 07:45 52.30394 4.77039 2 ft 12 kts 58°
2026-05-06 07:45 52.30440 4.77155 2 ft 12 kts 57°
2026-05-06 07:46 52.30485 4.77271 2 ft 12 kts 58°
2026-05-06 07:46 52.30529 4.77388 2 ft 12 kts 58°
2026-05-06 07:46 52.30573 4.77505 2 ft 12 kts 57°
2026-05-06 07:46 52.30641 4.77579 2 ft 12 kts 14°
2026-05-06 07:47 52.30727 4.77594 2 ft 14 kts
2026-05-06 07:47 52.30825 4.77604 2 ft 14 kts
2026-05-06 07:47 52.30923 4.77612 2 ft 14 kts
2026-05-06 07:47 52.30992 4.77609 2 ft 9 kts 343°
2026-05-06 07:48 52.31033 4.77539 2 ft 9 kts 304°
2026-05-06 07:48 52.31067 4.77455 2 ft 9 kts 297°
2026-05-06 07:48 52.31077 4.77357 2 ft 9 kts 271°
2026-05-06 07:48 52.31079 4.77238 2 ft 12 kts 271°
2026-05-06 07:49 52.31083 4.77097 2 ft 13 kts 273°
2026-05-06 07:49 52.31086 4.76960 2 ft 12 kts 271°
2026-05-06 07:49 52.31074 4.76865 2 ft 8 kts 236°
2026-05-06 07:49 52.31028 4.76806 2 ft 8 kts 214°
2026-05-06 07:50 52.30999 4.76727 2 ft 8 kts 261°
2026-05-06 07:50 52.31006 4.76669 2 ft 5 kts 293°
2026-05-06 07:50 52.31021 4.76627 2 ft 4 kts 303°
2026-05-06 07:50 52.31026 4.76616 2 ft 0 kts 304°